sat.trackr.live / text

‹ back to catalog

STARLINK-36337

NORAD 68716 · 2026-081T

PAYLOAD ACTIVE UNKNOWN

§ Identity

Operator
Country
US
Launch date
2026-04-14
Launch site
AFETR
Launch vehicle
Mass (kg)
RCS (m²)

Purposes: comms

External: N2YO · Heavens-Above · Gunter

§ Orbital elements

Epoch: 2026-09-20T03:19:16.107168Z

Period
93.85 min
Inclination
53.1590°
Eccentricity
0.0001078
Mean motion
15.34401692 rev/d
Perigee alt
462.0 km
Apogee alt
463.4 km
Semi-major
6,840.8 km
B*
4.7705e-4
RAAN
207.3766°
Arg perigee
89.0350°
Mean anomaly
271.0776°
Rev number
2,456

§ Raw data

STARLINK-363371 68716U 26081T   26263.13838087  .00015777  00000+0  47705-3 0  99942 68716  53.1590 207.3766 0001078  89.0350 271.0776 15.34401692 24567

JSON: /api/v1/satellites/68716 · /tle

For live sub-satellite position, see the globe view (requires WebGL).

§ Visibility from observer

Set your observer location to see the next 7 days of passes ≥ 10°. The values pass through the URL so the page stays shareable.

No JS? Fill the form by hand. The geolocation button needs JavaScript.